Location: Curupao
(10.4996°N, 66.6442°W)
Time: 12:10:22
(UTC+00:00)

Cosmos 2322 Rocket - Pass Details

Date: 23 May 2024
Orbit: 831 x 850 km, 71.0° (Epoch: 25 June)

Event Time Altitude Azimuth Distance (km) Brightness Sun altitude
Rises 07:51:07 0° 340° (NNW) 3,391 5.5 -30.2°
Reaches altitude 10° 07:53:34 10° 339° (NNW) 2,459 4.7 -29.7°
Enters shadow 07:56:25 31° 333° (NNW) 1,439 3.4 -29.1°
